| time (UTC) | temp F | wind direction | speed MPH | gust MPH | rain 1hr in | rain 24hr in | rain mn in | humidity % | barometer mb |
| 20260508162140 | 72 | 141 | 0.0 | 0.0 | 0.00 | 0.09 | 0.09 | 70 | 1012.0 |
| 20260508161637 | 70 | 144 | 0.0 | 0.0 | 0.00 | 0.09 | 0.09 | 74 | 1012.1 |
| 20260508161135 | 72 | 150 | 0.0 | 0.0 | 0.00 | 0.09 | 0.09 | 72 | 1012.2 |
| 20260508160633 | 71 | 132 | 0.0 | 0.0 | 0.00 | 0.09 | 0.09 | 73 | 1012.2 |
| 20260508160131 | 72 | 123 | 0.0 | 0.0 | 0.00 | 0.09 | 0.09 | 73 | 1012.0 |
| 20260508155627 | 72 | 195 | 0.0 | 0.0 | 0.00 | 0.09 | 0.09 | 73 | 1012.1 |
| 20260508155124 | 71 | 139 | 0.0 | 1.0 | 0.00 | 0.09 | 0.09 | 74 | 1012.4 |
| 20260508154621 | 71 | 135 | 0.0 | 0.0 | 0.00 | 0.09 | 0.09 | 74 | 1012.1 |
| 20260508154118 | 71 | 156 | 0.0 | 1.0 | 0.00 | 0.09 | 0.09 | 72 | 1012.4 |
| 20260508153615 | 72 | 133 | 1.0 | 1.0 | 0.00 | 0.09 | 0.09 | 74 | 1012.3 |
| 20260508153112 | 71 | 153 | 0.0 | 0.0 | 0.00 | 0.09 | 0.09 | 74 | 1012.1 |
| 20260508152608 | 69 | 158 | 0.0 | 1.0 | 0.00 | 0.09 | 0.09 | 74 | 1012.6 |
| 20260508152103 | 68 | 199 | 0.0 | 1.0 | 0.00 | 0.09 | 0.09 | 78 | 1012.7 |
| 20260508151601 | 68 | 160 | 0.0 | 0.0 | 0.00 | 0.09 | 0.09 | 79 | 1012.7 |
| 20260508151058 | 68 | 154 | 0.0 | 0.0 | 0.00 | 0.09 | 0.09 | 75 | 1012.7 |
| 20260508150555 | 68 | 132 | 0.0 | 0.0 | 0.00 | 0.09 | 0.09 | 75 | 1012.7 |
| 20260508150050 | 68 | 137 | 0.0 | 0.0 | 0.00 | 0.09 | 0.09 | 76 | 1012.7 |
| 20260508145547 | 68 | 182 | 0.0 | 0.0 | 0.00 | 0.09 | 0.09 | 77 | 1012.7 |
| 20260508145044 | 68 | 146 | 0.0 | 0.0 | 0.00 | 0.09 | 0.09 | 75 | 1012.8 |
| 20260508144542 | 68 | 148 | 0.0 | 0.0 | 0.00 | 0.09 | 0.09 | 76 | 1012.9 |
| 20260508144039 | 67 | 156 | 0.0 | 0.0 | 0.00 | 0.09 | 0.09 | 76 | 1013.0 |
| 20260508143536 | 66 | 148 | 0.0 | 0.0 | 0.00 | 0.09 | 0.09 | 79 | 1013.0 |
| 20260508143032 | 66 | 205 | 0.0 | 0.0 | 0.00 | 0.09 | 0.09 | 77 | 1012.8 |
| 20260508142530 | 66 | 128 | 0.0 | 0.0 | 0.00 | 0.09 | 0.09 | 77 | 1013.0 |
| 20260508142026 | 66 | 128 | 0.0 | 0.0 | 0.00 | 0.09 | 0.09 | 76 | 1013.5 |
| 20260508141522 | 66 | 133 | 1.0 | 1.0 | 0.00 | 0.09 | 0.09 | 78 | 1013.4 |
| 20260508141020 | 64 | 136 | 6.0 | 6.0 | 0.00 | 0.09 | 0.09 | 79 | 1013.5 |
| 20260508140518 | 64 | 173 | 2.0 | 2.0 | 0.00 | 0.09 | 0.09 | 80 | 1013.7 |
| 20260508140014 | 64 | 139 | 0.0 | 1.0 | 0.00 | 0.09 | 0.09 | 80 | 1013.7 |
| 20260508135509 | 64 | 158 | 2.0 | 2.0 | 0.00 | 0.09 | 0.09 | 80 | 1013.6 |
| 20260508135006 | 64 | 192 | 0.0 | 0.0 | 0.00 | 0.09 | 0.09 | 80 | 1013.8 |
| 20260508134502 | 64 | 139 | 1.0 | 3.0 | 0.00 | 0.09 | 0.09 | 80 | 1013.8 |
| 20260508133959 | 64 | 157 | 0.0 | 1.0 | 0.00 | 0.09 | 0.09 | 80 | 1013.7 |
| 20260508133457 | 64 | 142 | 0.0 | 0.0 | 0.00 | 0.09 | 0.09 | 81 | 1013.7 |
| 20260508132953 | 63 | 131 | 0.0 | 0.0 | 0.00 | 0.09 | 0.09 | 82 | 1013.6 |
| 20260508132452 | 62 | 159 | 0.0 | 0.0 | 0.00 | 0.09 | 0.09 | 84 | 1013.7 |
| 20260508131948 | 62 | 130 | 0.0 | 0.0 | 0.00 | 0.09 | 0.09 | 85 | 1013.5 |
| 20260508131443 | 62 | 162 | 0.0 | 0.0 | 0.00 | 0.09 | 0.09 | 84 | 1013.6 |
| 20260508130940 | 62 | 81 | 0.0 | 0.0 | 0.00 | 0.09 | 0.09 | 85 | 1013.4 |
| 20260508130437 | 62 | 111 | 0.0 | 0.0 | 0.00 | 0.09 | 0.09 | 85 | 1013.5 |
| 20260508125933 | 62 | 116 | 0.0 | 0.0 | 0.00 | 0.09 | 0.09 | 85 | 1013.3 |
| 20260508125429 | 62 | 120 | 0.0 | 0.0 | 0.00 | 0.09 | 0.09 | 85 | 1013.2 |
| 20260508124927 | 61 | 123 | 0.0 | 0.0 | 0.00 | 0.09 | 0.09 | 87 | 1013.2 |
| 20260508124425 | 60 | 140 | 0.0 | 0.0 | 0.00 | 0.09 | 0.09 | 88 | 1012.9 |
| 20260508123922 | 59 | 133 | 0.0 | 0.0 | 0.00 | 0.09 | 0.09 | 89 | 1012.9 |
| 20260508123421 | 59 | 122 | 0.0 | 0.0 | 0.00 | 0.09 | 0.09 | 90 | 1012.8 |
| 20260508122917 | 59 | 132 | 0.0 | 0.0 | 0.00 | 0.09 | 0.09 | 91 | 1012.9 |
| 20260508122414 | 58 | 133 | 0.0 | 0.0 | 0.00 | 0.09 | 0.09 | 91 | 1013.0 |
| 20260508121911 | 58 | 133 | 0.0 | 0.0 | 0.00 | 0.09 | 0.09 | 91 | 1012.9 |
| 20260508121409 | 58 | 132 | 0.0 | 0.0 | 0.00 | 0.09 | 0.09 | 92 | 1013.2 |
| 20260508120906 | 58 | 132 | 0.0 | 0.0 | 0.00 | 0.09 | 0.09 | 92 | 1012.8 |
| 20260508120404 | 57 | 132 | 0.0 | 0.0 | 0.00 | 0.09 | 0.09 | 92 | 1012.8 |
| 20260508115901 | 58 | 133 | 0.0 | 0.0 | 0.00 | 0.09 | 0.09 | 92 | 1013.0 |
| 20260508115359 | 58 | 134 | 0.0 | 0.0 | 0.00 | 0.09 | 0.09 | 92 | 1012.9 |
| 20260508114855 | 58 | 145 | 0.0 | 0.0 | 0.00 | 0.09 | 0.09 | 91 | 1013.2 |
| 20260508114352 | 58 | 141 | 0.0 | 0.0 | 0.00 | 0.09 | 0.09 | 91 | 1013.0 |
| 20260508113849 | 58 | 158 | 0.0 | 0.0 | 0.00 | 0.09 | 0.09 | 91 | 1013.3 |
| 20260508113347 | 58 | 138 | 0.0 | 0.0 | 0.00 | 0.09 | 0.09 | 91 | 1013.4 |
| 20260508112844 | 58 | 137 | 0.0 | 0.0 | 0.00 | 0.09 | 0.09 | 91 | 1013.4 |
| 20260508112341 | 58 | 161 | 0.0 | 0.0 | 0.00 | 0.09 | 0.09 | 92 | 1012.9 |
| 20260508111837 | 58 | 143 | 0.0 | 0.0 | 0.00 | 0.09 | 0.09 | 92 | 1013.3 |
| 20260508111334 | 58 | 125 | 0.0 | 0.0 | 0.00 | 0.09 | 0.09 | 92 | 1013.3 |
| 20260508110831 | 58 | 123 | 0.0 | 0.0 | 0.00 | 0.09 | 0.09 | 92 | 1013.2 |
| 20260508110329 | 58 | 117 | 0.0 | 0.0 | 0.00 | 0.09 | 0.09 | 92 | 1013.3 |
| 20260508105829 | 58 | 117 | 0.0 | 0.0 | 0.00 | 0.09 | 0.09 | 92 | 1013.3 |
| 20260508105326 | 58 | 150 | 0.0 | 0.0 | 0.00 | 0.09 | 0.09 | 92 | 1013.5 |
| 20260508104822 | 58 | 137 | 0.0 | 0.0 | 0.00 | 0.09 | 0.09 | 92 | 1013.4 |
| 20260508104319 | 58 | 137 | 0.0 | 0.0 | 0.00 | 0.09 | 0.09 | 92 | 1013.2 |
| 20260508103816 | 58 | 137 | 0.0 | 0.0 | 0.00 | 0.09 | 0.09 | 92 | 1013.2 |
| 20260508103313 | 57 | 137 | 0.0 | 0.0 | 0.00 | 0.09 | 0.09 | 92 | 1013.3 |
| 20260508102811 | 57 | 136 | 0.0 | 0.0 | 0.00 | 0.09 | 0.09 | 93 | 1013.5 |
| 20260508102309 | 57 | 138 | 0.0 | 0.0 | 0.00 | 0.09 | 0.09 | 93 | 1013.4 |
| 20260508101806 | 57 | 135 | 0.0 | 0.0 | 0.00 | 0.09 | 0.09 | 93 | 1013.6 |
| 20260508101303 | 57 | 135 | 0.0 | 0.0 | 0.00 | 0.09 | 0.09 | 93 | 1013.4 |
| 20260508100801 | 57 | 136 | 0.0 | 0.0 | 0.00 | 0.09 | 0.09 | 93 | 1013.6 |
| 20260508100259 | 57 | 139 | 0.0 | 0.0 | 0.00 | 0.09 | 0.09 | 93 | 1013.5 |
| 20260508095754 | 57 | 148 | 0.0 | 0.0 | 0.00 | 0.09 | 0.09 | 93 | 1013.0 |
| 20260508095252 | 57 | 140 | 0.0 | 0.0 | 0.00 | 0.09 | 0.09 | 93 | 1013.4 |
| 20260508094749 | 57 | 133 | 0.0 | 0.0 | 0.00 | 0.09 | 0.09 | 93 | 1013.8 |
| 20260508094246 | 57 | 133 | 0.0 | 0.0 | 0.00 | 0.09 | 0.09 | 93 | 1013.6 |
| 20260508093743 | 57 | 136 | 0.0 | 0.0 | 0.00 | 0.09 | 0.09 | 93 | 1013.6 |
| 20260508093241 | 57 | 154 | 0.0 | 0.0 | 0.00 | 0.09 | 0.09 | 93 | 1013.3 |
| 20260508092737 | 57 | 145 | 0.0 | 0.0 | 0.00 | 0.09 | 0.09 | 93 | 1013.2 |
| 20260508092236 | 57 | 150 | 0.0 | 0.0 | 0.00 | 0.09 | 0.09 | 93 | 1013.4 |
| 20260508091733 | 58 | 121 | 0.0 | 0.0 | 0.00 | 0.09 | 0.09 | 93 | 1013.0 |
| 20260508091230 | 58 | 124 | 0.0 | 0.0 | 0.00 | 0.09 | 0.09 | 93 | 1013.7 |
| 20260508090728 | 58 | 123 | 0.0 | 0.0 | 0.00 | 0.09 | 0.09 | 93 | 1013.4 |
| 20260508090225 | 58 | 146 | 0.0 | 0.0 | 0.00 | 0.09 | 0.09 | 93 | 1013.7 |
| 20260508085721 | 58 | 117 | 0.0 | 0.0 | 0.00 | 0.09 | 0.09 | 93 | 1013.7 |
| 20260508085219 | 58 | 118 | 0.0 | 0.0 | 0.00 | 0.09 | 0.09 | 93 | 1013.6 |
| 20260508084714 | 58 | 157 | 0.0 | 0.0 | 0.00 | 0.09 | 0.09 | 93 | 1013.4 |
| 20260508084212 | 57 | 149 | 0.0 | 0.0 | 0.00 | 0.09 | 0.09 | 93 | 1013.5 |
| 20260508083709 | 58 | 125 | 0.0 | 0.0 | 0.00 | 0.09 | 0.09 | 93 | 1013.7 |
| 20260508083207 | 57 | 116 | 0.0 | 0.0 | 0.00 | 0.09 | 0.09 | 93 | 1013.4 |
| 20260508082701 | 57 | 116 | 0.0 | 0.0 | 0.00 | 0.09 | 0.09 | 92 | 1013.3 |
| 20260508082159 | 57 | 116 | 0.0 | 0.0 | 0.00 | 0.09 | 0.09 | 92 | 1013.6 |
| 20260508081657 | 57 | 118 | 0.0 | 0.0 | 0.00 | 0.09 | 0.09 | 92 | 1013.6 |
| 20260508081153 | 57 | 131 | 0.0 | 0.0 | 0.00 | 0.09 | 0.09 | 92 | 1013.5 |
| 20260508080650 | 57 | 160 | 0.0 | 0.0 | 0.00 | 0.09 | 0.09 | 92 | 1013.6 |
| 20260508080149 | 57 | 154 | 0.0 | 0.0 | 0.00 | 0.09 | 0.09 | 92 | 1013.6 |
| 20260508075644 | 57 | 156 | 0.0 | 0.0 | 0.00 | 0.09 | 0.09 | 92 | 1013.7 |
| 20260508075142 | 57 | 149 | 0.0 | 0.0 | 0.00 | 0.09 | 0.09 | 92 | 1013.8 |
| 20260508074639 | 57 | 153 | 0.0 | 0.0 | 0.00 | 0.09 | 0.09 | 92 | 1013.7 |
| 20260508074136 | 57 | 108 | 0.0 | 0.0 | 0.00 | 0.09 | 0.09 | 92 | 1013.9 |
| 20260508073633 | 57 | 107 | 0.0 | 0.0 | 0.00 | 0.09 | 0.09 | 92 | 1014.0 |
| 20260508073131 | 57 | 112 | 0.0 | 0.0 | 0.00 | 0.09 | 0.09 | 92 | 1014.0 |
| 20260508072626 | 57 | 105 | 0.0 | 0.0 | 0.00 | 0.09 | 0.09 | 92 | 1014.0 |
| 20260508072124 | 57 | 86 | 0.0 | 0.0 | 0.00 | 0.09 | 0.09 | 92 | 1014.1 |
| 20260508071621 | 57 | 49 | 0.0 | 0.0 | 0.00 | 0.09 | 0.09 | 92 | 1014.2 |
| 20260508071120 | 57 | 63 | 0.0 | 0.0 | 0.00 | 0.09 | 0.09 | 92 | 1014.1 |
| 20260508070617 | 57 | 111 | 0.0 | 0.0 | 0.00 | 0.09 | 0.09 | 92 | 1014.3 |
| 20260508070115 | 57 | 131 | 0.0 | 0.0 | 0.00 | 0.09 | 0.09 | 92 | 1014.1 |
| 20260508065612 | 57 | 129 | 0.0 | 0.0 | 0.00 | 0.09 | 0.09 | 92 | 1014.3 |
| 20260508065110 | 57 | 131 | 0.0 | 0.0 | 0.00 | 0.09 | 0.09 | 92 | 1014.5 |
| 20260508064607 | 57 | 131 | 0.0 | 0.0 | 0.00 | 0.09 | 0.09 | 91 | 1014.4 |
| 20260508064105 | 57 | 117 | 0.0 | 0.0 | 0.00 | 0.09 | 0.09 | 91 | 1014.4 |
| 20260508063602 | 58 | 88 | 0.0 | 0.0 | 0.00 | 0.09 | 0.09 | 91 | 1014.7 |
| 20260508063100 | 58 | 83 | 0.0 | 0.0 | 0.00 | 0.09 | 0.09 | 91 | 1014.4 |
| 20260508062558 | 58 | 80 | 0.0 | 0.0 | 0.00 | 0.09 | 0.09 | 91 | 1014.3 |
| 20260508062054 | 58 | 83 | 0.0 | 0.0 | 0.00 | 0.09 | 0.09 | 91 | 1014.6 |
| 20260508061552 | 58 | 83 | 0.0 | 0.0 | 0.07 | 0.09 | 0.09 | 90 | 1014.6 |
| 20260508061048 | 59 | 112 | 0.0 | 0.0 | 0.54 | 0.09 | 0.09 | 89 | 1014.8 |
| 20260508060545 | 60 | 155 | 0.0 | 0.0 | 0.47 | 0.08 | 0.08 | 86 | 1015.1 |
| 20260508060043 | 61 | 157 | 0.0 | 1.0 | 0.00 | 0.00 | 0.00 | 82 | 1015.3 |
| 20260508055538 | 61 | 110 | 0.0 | 0.0 | 0.00 | 0.00 | 0.00 | 79 | 1015.0 |
| 20260508055035 | 61 | 108 | 0.0 | 0.0 | 0.00 | 0.00 | 0.00 | 77 | 1015.2 |
| 20260508054532 | 61 | 109 | 0.0 | 0.0 | 0.00 | 0.00 | 0.00 | 78 | 1015.0 |
| 20260508054029 | 61 | 134 | 0.0 | 0.0 | 0.00 | 0.00 | 0.00 | 78 | 1015.1 |
| 20260508053526 | 61 | 135 | 0.0 | 0.0 | 0.00 | 0.00 | 0.00 | 78 | 1014.8 |
| 20260508053025 | 61 | 128 | 0.0 | 0.0 | 0.00 | 0.00 | 0.00 | 79 | 1014.9 |
| 20260508052521 | 60 | 128 | 0.0 | 0.0 | 0.00 | 0.00 | 0.00 | 79 | 1015.0 |
| 20260508052018 | 60 | 128 | 0.0 | 0.0 | 0.00 | 0.00 | 0.00 | 80 | 1014.7 |
| 20260508051514 | 61 | 128 | 0.0 | 0.0 | 0.00 | 0.00 | 0.00 | 78 | 1015.1 |
| 20260508051009 | 61 | 128 | 0.0 | 0.0 | 0.00 | 0.00 | 0.00 | 77 | 1015.0 |
| 20260508050506 | 61 | 128 | 0.0 | 0.0 | 0.00 | 0.00 | 0.00 | 77 | 1015.0 |
| 20260508050003 | 60 | 128 | 0.0 | 0.0 | 0.00 | 0.00 | 0.00 | 77 | 1014.9 |
| 20260508045500 | 60 | 130 | 0.0 | 0.0 | 0.00 | 0.00 | 0.00 | 78 | 1015.2 |
| 20260508044957 | 61 | 130 | 0.0 | 0.0 | 0.00 | 0.00 | 0.00 | 78 | 1015.1 |
| 20260508044454 | 61 | 132 | 0.0 | 0.0 | 0.00 | 0.00 | 0.00 | 76 | 1015.0 |
| 20260508043949 | 62 | 141 | 0.0 | 0.0 | 0.00 | 0.00 | 0.00 | 74 | 1014.9 |
| 20260508043447 | 62 | 147 | 0.0 | 0.0 | 0.00 | 0.00 | 0.00 | 74 | 1015.0 |
| 20260508042943 | 62 | 147 | 0.0 | 0.0 | 0.00 | 0.00 | 0.00 | 75 | 1014.9 |
| 20260508042441 | 62 | 148 | 0.0 | 0.0 | 0.00 | 0.00 | 0.00 | 75 | 1015.0 |
| 20260508041938 | 62 | 150 | 0.0 | 0.0 | 0.00 | 0.00 | 0.00 | 74 | 1015.1 |
| 20260508041434 | 62 | 150 | 0.0 | 0.0 | 0.00 | 0.00 | 0.00 | 76 | 1014.9 |
| 20260508040931 | 62 | 150 | 0.0 | 0.0 | 0.00 | 0.00 | 0.00 | 75 | 1015.1 |
| 20260508040429 | 62 | 150 | 0.0 | 0.0 | 0.00 | 0.00 | 0.00 | 74 | 1014.8 |
| 20260508035926 | 62 | 150 | 0.0 | 0.0 | 0.00 | 0.00 | 0.00 | 74 | 1014.8 |
| 20260508035423 | 62 | 150 | 0.0 | 0.0 | 0.00 | 0.00 | 0.00 | 75 | 1015.0 |
| 20260508034919 | 62 | 152 | 0.0 | 0.0 | 0.00 | 0.00 | 0.00 | 75 | 1014.9 |
| 20260508034417 | 62 | 143 | 0.0 | 0.0 | 0.00 | 0.00 | 0.00 | 75 | 1014.6 |
| 20260508033913 | 62 | 139 | 0.0 | 0.0 | 0.00 | 0.00 | 0.00 | 75 | 1014.6 |
| 20260508033412 | 63 | 139 | 0.0 | 0.0 | 0.00 | 0.00 | 0.00 | 75 | 1014.7 |
| 20260508032909 | 63 | 139 | 0.0 | 0.0 | 0.00 | 0.00 | 0.00 | 75 | 1014.8 |
| 20260508032406 | 63 | 139 | 0.0 | 0.0 | 0.00 | 0.00 | 0.00 | 75 | 1014.6 |
| 20260508031903 | 62 | 139 | 0.0 | 0.0 | 0.00 | 0.00 | 0.00 | 76 | 1014.7 |
| 20260508031400 | 62 | 140 | 0.0 | 0.0 | 0.00 | 0.00 | 0.00 | 75 | 1014.5 |
| 20260508030855 | 62 | 140 | 0.0 | 0.0 | 0.00 | 0.00 | 0.00 | 76 | 1014.6 |
| 20260508030353 | 62 | 141 | 0.0 | 0.0 | 0.00 | 0.00 | 0.00 | 76 | 1014.6 |
| 20260508025850 | 63 | 141 | 0.0 | 0.0 | 0.00 | 0.00 | 0.00 | 75 | 1014.5 |
| 20260508025347 | 63 | 146 | 0.0 | 0.0 | 0.00 | 0.00 | 0.00 | 75 | 1014.5 |
| 20260508024844 | 63 | 143 | 0.0 | 0.0 | 0.00 | 0.00 | 0.00 | 74 | 1014.4 |
| 20260508024340 | 63 | 152 | 0.0 | 0.0 | 0.00 | 0.00 | 0.00 | 75 | 1014.1 |
| 20260508023837 | 63 | 155 | 0.0 | 0.0 | 0.00 | 0.00 | 0.00 | 75 | 1014.2 |
| 20260508023334 | 63 | 143 | 0.0 | 0.0 | 0.00 | 0.00 | 0.00 | 75 | 1014.0 |
| 20260508022831 | 63 | 161 | 0.0 | 2.0 | 0.00 | 0.00 | 0.00 | 74 | 1014.0 |
| 20260508022326 | 63 | 147 | 0.0 | 0.0 | 0.00 | 0.00 | 0.00 | 74 | 1014.0 |
| 20260508021824 | 63 | 149 | 0.0 | 0.0 | 0.00 | 0.00 | 0.00 | 73 | 1014.1 |
| 20260508021319 | 63 | 136 | 0.0 | 0.0 | 0.00 | 0.00 | 0.00 | 73 | 1013.9 |
| 20260508020816 | 63 | 140 | 0.0 | 0.0 | 0.00 | 0.00 | 0.00 | 73 | 1013.9 |
| 20260508020314 | 63 | 136 | 0.0 | 0.0 | 0.00 | 0.00 | 0.00 | 74 | 1013.8 |
| 20260508015810 | 63 | 137 | 0.0 | 0.0 | 0.00 | 0.00 | 0.00 | 73 | 1013.6 |
| 20260508015308 | 64 | 139 | 0.0 | 0.0 | 0.00 | 0.00 | 0.00 | 72 | 1013.8 |
| 20260508014805 | 64 | 139 | 0.0 | 0.0 | 0.00 | 0.00 | 0.00 | 72 | 1013.8 |
| 20260508014302 | 64 | 144 | 0.0 | 0.0 | 0.00 | 0.00 | 0.00 | 72 | 1013.7 |
| 20260508013757 | 64 | 149 | 0.0 | 0.0 | 0.00 | 0.00 | 0.00 | 72 | 1013.3 |
| 20260508013254 | 64 | 153 | 0.0 | 0.0 | 0.00 | 0.00 | 0.00 | 71 | 1013.7 |
| 20260508012751 | 64 | 145 | 0.0 | 0.0 | 0.00 | 0.00 | 0.00 | 71 | 1013.8 |
| 20260508012248 | 65 | 143 | 0.0 | 0.0 | 0.00 | 0.00 | 0.00 | 70 | 1013.6 |
| 20260508011746 | 65 | 146 | 0.0 | 1.0 | 0.00 | 0.00 | 0.00 | 69 | 1013.6 |
| 20260508011243 | 66 | 155 | 0.0 | 1.0 | 0.00 | 0.00 | 0.00 | 68 | 1013.7 |
| 20260508010740 | 66 | 148 | 0.0 | 0.0 | 0.00 | 0.00 | 0.00 | 67 | 1013.6 |
| 20260508010238 | 66 | 157 | 0.0 | 0.0 | 0.00 | 0.00 | 0.00 | 67 | 1013.8 |
| 20260508005735 | 66 | 154 | 0.0 | 0.0 | 0.00 | 0.00 | 0.00 | 67 | 1013.6 |
| 20260508005232 | 67 | 171 | 0.0 | 0.0 | 0.00 | 0.00 | 0.00 | 66 | 1013.9 |
| 20260508004727 | 67 | 155 | 0.0 | 0.0 | 0.00 | 0.00 | 0.00 | 64 | 1013.8 |
| 20260508004224 | 68 | 152 | 0.0 | 0.0 | 0.00 | 0.00 | 0.00 | 63 | 1013.6 |
| 20260508003721 | 68 | 143 | 0.0 | 0.0 | 0.00 | 0.00 | 0.00 | 62 | 1013.9 |
| 20260508003218 | 68 | 151 | 0.0 | 0.0 | 0.00 | 0.00 | 0.00 | 62 | 1013.9 |
| 20260508002714 | 69 | 150 | 0.0 | 0.0 | 0.00 | 0.00 | 0.00 | 61 | 1014.0 |
| 20260508002212 | 69 | 148 | 0.0 | 0.0 | 0.00 | 0.00 | 0.00 | 61 | 1013.9 |
| 20260508001707 | 69 | 167 | 0.0 | 1.0 | 0.00 | 0.00 | 0.00 | 61 | 1013.8 |
| 20260508001203 | 69 | 164 | 0.0 | 0.0 | 0.00 | 0.00 | 0.00 | 60 | 1013.8 |
| 20260508000700 | 70 | 152 | 0.0 | 1.0 | 0.00 | 0.00 | 0.00 | 59 | 1013.7 |
| 20260508000157 | 70 | 148 | 0.0 | 0.0 | 0.00 | 0.00 | 0.00 | 59 | 1014.0 |
| 20260507235653 | 70 | 159 | 0.0 | 2.0 | 0.00 | 0.00 | 0.00 | 59 | 1013.9 |
| 20260507235151 | 71 | 152 | 0.0 | 0.0 | 0.00 | 0.00 | 0.00 | 58 | 1014.1 |
| 20260507234648 | 71 | 152 | 0.0 | 0.0 | 0.00 | 0.00 | 0.00 | 58 | 1014.1 |
| 20260507234144 | 71 | 161 | 0.0 | 0.0 | 0.00 | 0.00 | 0.00 | 56 | 1014.1 |
| 20260507233641 | 71 | 152 | 0.0 | 1.0 | 0.00 | 0.00 | 0.00 | 58 | 1014.1 |
| 20260507233139 | 71 | 149 | 0.0 | 0.0 | 0.00 | 0.00 | 0.00 | 55 | 1014.2 |
| 20260507232635 | 72 | 160 | 0.0 | 0.0 | 0.00 | 0.00 | 0.00 | 56 | 1014.1 |
| 20260507232133 | 73 | 166 | 0.0 | 0.0 | 0.00 | 0.00 | 0.00 | 53 | 1014.1 |
| 20260507231629 | 73 | 127 | 0.0 | 0.0 | 0.00 | 0.00 | 0.00 | 52 | 1014.0 |
| 20260507231126 | 74 | 133 | 1.0 | 1.0 | 0.00 | 0.00 | 0.00 | 50 | 1014.1 |
| 20260507230622 | 74 | 131 | 0.0 | 0.0 | 0.00 | 0.00 | 0.00 | 51 | 1013.8 |
| 20260507230120 | 75 | 132 | 0.0 | 0.0 | 0.00 | 0.00 | 0.00 | 49 | 1014.1 |
| 20260507225615 | 75 | 153 | 1.0 | 2.0 | 0.00 | 0.00 | 0.00 | 50 | 1014.3 |
| 20260507225111 | 75 | 133 | 0.0 | 0.0 | 0.00 | 0.00 | 0.00 | 50 | 1014.4 |
| 20260507224607 | 73 | 126 | 0.0 | 0.0 | 0.00 | 0.00 | 0.00 | 51 | 1014.2 |
| 20260507224104 | 74 | 153 | 0.0 | 0.0 | 0.00 | 0.00 | 0.00 | 50 | 1014.4 |
| 20260507223600 | 74 | 131 | 0.0 | 1.0 | 0.00 | 0.00 | 0.00 | 50 | 1014.4 |
| 20260507223057 | 75 | 97 | 0.0 | 0.0 | 0.00 | 0.00 | 0.00 | 47 | 1014.5 |
| 20260507222554 | 76 | 174 | 1.0 | 2.0 | 0.00 | 0.00 | 0.00 | 47 | 1014.5 |
| 20260507222050 | 75 | 137 | 0.0 | 0.0 | 0.00 | 0.00 | 0.00 | 47 | 1014.6 |
| 20260507221547 | 76 | 145 | 0.0 | 0.0 | 0.00 | 0.00 | 0.00 | 46 | 1014.5 |
| 20260507221044 | 77 | 133 | 0.0 | 0.0 | 0.00 | 0.00 | 0.00 | 44 | 1014.7 |
| 20260507220541 | 76 | 152 | 0.0 | 0.0 | 0.00 | 0.00 | 0.00 | 46 | 1014.8 |
| 20260507220038 | 77 | 141 | 0.0 | 0.0 | 0.00 | 0.00 | 0.00 | 46 | 1014.5 |
| 20260507215534 | 76 | 146 | 1.0 | 2.0 | 0.00 | 0.00 | 0.00 | 45 | 1014.5 |
| 20260507215033 | 73 | 147 | 1.0 | 2.0 | 0.00 | 0.00 | 0.00 | 47 | 1014.9 |
| 20260507214530 | 75 | 98 | 0.0 | 0.0 | 0.00 | 0.00 | 0.00 | 48 | 1014.7 |
| 20260507214025 | 75 | 158 | 0.0 | 0.0 | 0.00 | 0.00 | 0.00 | 47 | 1014.8 |
| 20260507213522 | 75 | 148 | 0.0 | 0.0 | 0.00 | 0.00 | 0.00 | 48 | 1014.8 |
| 20260507213019 | 75 | 136 | 0.0 | 0.0 | 0.00 | 0.00 | 0.00 | 48 | 1014.9 |
| 20260507212514 | 74 | 148 | 0.0 | 0.0 | 0.00 | 0.00 | 0.00 | 48 | 1015.0 |
| 20260507212011 | 74 | 168 | 0.0 | 1.0 | 0.00 | 0.00 | 0.00 | 50 | 1015.0 |
| 20260507211508 | 74 | 135 | 0.0 | 0.0 | 0.00 | 0.00 | 0.00 | 49 | 1015.1 |
| 20260507211004 | 74 | 123 | 0.0 | 0.0 | 0.00 | 0.00 | 0.00 | 49 | 1015.3 |
| 20260507210501 | 75 | 170 | 0.0 | 1.0 | 0.00 | 0.00 | 0.00 | 48 | 1015.2 |
| 20260507205958 | 74 | 126 | 0.0 | 0.0 | 0.00 | 0.00 | 0.00 | 50 | 1015.4 |
| 20260507205455 | 75 | 149 | 0.0 | 0.0 | 0.00 | 0.00 | 0.00 | 49 | 1015.6 |
| 20260507204951 | 74 | 148 | 0.0 | 0.0 | 0.00 | 0.00 | 0.00 | 49 | 1015.5 |
| 20260507204448 | 74 | 175 | 0.0 | 0.0 | 0.00 | 0.00 | 0.00 | 50 | 1015.6 |
| 20260507203945 | 74 | 170 | 0.0 | 0.0 | 0.00 | 0.00 | 0.00 | 48 | 1015.5 |
| 20260507203443 | 74 | 171 | 0.0 | 0.0 | 0.00 | 0.00 | 0.00 | 48 | 1015.5 |
| 20260507202939 | 74 | 68 | 0.0 | 0.0 | 0.00 | 0.00 | 0.00 | 47 | 1015.8 |
| 20260507202436 | 72 | 81 | 0.0 | 0.0 | 0.00 | 0.00 | 0.00 | 50 | 1015.6 |
| 20260507201932 | 73 | 72 | 1.0 | 3.0 | 0.00 | 0.00 | 0.00 | 49 | 1015.7 |
| 20260507201432 | 74 | 142 | 0.0 | 0.0 | 0.00 | 0.00 | 0.00 | 48 | 1015.8 |
| 20260507200930 | 73 | 85 | 0.0 | 0.0 | 0.00 | 0.00 | 0.00 | 49 | 1015.5 |
| 20260507200425 | 73 | 82 | 0.0 | 0.0 | 0.00 | 0.00 | 0.00 | 49 | 1015.5 |
| 20260507195921 | 71 | 343 | 0.0 | 0.0 | 0.00 | 0.00 | 0.00 | 53 | 1015.6 |
| 20260507195419 | 73 | 99 | 0.0 | 0.0 | 0.00 | 0.00 | 0.00 | 49 | 1015.5 |
| 20260507194916 | 73 | 120 | 0.0 | 0.0 | 0.00 | 0.00 | 0.00 | 48 | 1015.6 |
| 20260507194412 | 73 | 76 | 0.0 | 0.0 | 0.00 | 0.00 | 0.00 | 48 | 1015.8 |
| 20260507193909 | 73 | 106 | 0.0 | 0.0 | 0.00 | 0.00 | 0.00 | 49 | 1015.8 |
| 20260507193406 | 73 | 142 | 0.0 | 0.0 | 0.00 | 0.00 | 0.00 | 48 | 1016.0 |
| 20260507192902 | 73 | 352 | 0.0 | 0.0 | 0.00 | 0.00 | 0.00 | 49 | 1016.0 |
| 20260507192358 | 72 | 47 | 0.0 | 0.0 | 0.00 | 0.00 | 0.00 | 49 | 1016.1 |
| 20260507191855 | 72 | 95 | 0.0 | 0.0 | 0.00 | 0.00 | 0.00 | 49 | 1016.1 |
| 20260507191351 | 73 | 55 | 0.0 | 0.0 | 0.00 | 0.00 | 0.00 | 49 | 1016.4 |
| 20260507190848 | 70 | 308 | 9.0 | 10.0 | 0.00 | 0.00 | 0.00 | 52 | 1016.6 |
| 20260507190346 | 69 | 25 | 0.0 | 0.0 | 0.00 | 0.00 | 0.00 | 52 | 1016.6 |
| 20260507185845 | 69 | 302 | 0.0 | 0.0 | 0.00 | 0.00 | 0.00 | 51 | 1016.7 |
| 20260507185342 | 68 | 333 | 1.0 | 2.0 | 0.00 | 0.00 | 0.00 | 53 | 1016.6 |
| 20260507184838 | 69 | 46 | 0.0 | 0.0 | 0.00 | 0.00 | 0.00 | 52 | 1016.8 |
| 20260507184337 | 69 | 319 | 1.0 | 2.0 | 0.00 | 0.00 | 0.00 | 52 | 1017.0 |
| 20260507183833 | 69 | 12 | 0.0 | 0.0 | 0.00 | 0.00 | 0.00 | 53 | 1016.8 |
| 20260507183330 | 69 | 357 | 1.0 | 5.0 | 0.00 | 0.00 | 0.00 | 53 | 1016.9 |
| 20260507182828 | 71 | 281 | 0.0 | 1.0 | 0.00 | 0.00 | 0.00 | 53 | 1017.0 |
| 20260507182324 | 68 | 345 | 3.0 | 5.0 | 0.00 | 0.00 | 0.00 | 52 | 1016.8 |
| 20260507181820 | 69 | 347 | 1.0 | 2.0 | 0.00 | 0.00 | 0.00 | 54 | 1016.9 |
| 20260507181316 | 69 | 358 | 0.0 | 1.0 | 0.00 | 0.00 | 0.00 | 52 | 1017.0 |
| 20260507180813 | 69 | 113 | 0.0 | 0.0 | 0.00 | 0.00 | 0.00 | 51 | 1017.3 |
| 20260507180310 | 69 | 86 | 0.0 | 1.0 | 0.00 | 0.00 | 0.00 | 51 | 1017.4 |
| 20260507175805 | 69 | 9 | 3.0 | 5.0 | 0.00 | 0.00 | 0.00 | 52 | 1017.2 |
| 20260507175306 | 67 | 68 | 6.0 | 7.0 | 0.00 | 0.00 | 0.00 | 53 | 1017.6 |
| 20260507174759 | 67 | 359 | 1.0 | 2.0 | 0.00 | 0.00 | 0.00 | 56 | 1017.4 |
| 20260507174257 | 68 | 3 | 5.0 | 8.0 | 0.00 | 0.00 | 0.00 | 53 | 1017.7 |
| 20260507173755 | 69 | 71 | 2.0 | 2.0 | 0.00 | 0.00 | 0.00 | 53 | 1017.7 |
| 20260507173252 | 68 | 91 | 3.0 | 5.0 | 0.00 | 0.00 | 0.00 | 53 | 1017.7 |
| 20260507172748 | 68 | 300 | 6.0 | 9.0 | 0.00 | 0.00 | 0.00 | 53 | 1017.8 |
| 20260507172245 | 69 | 13 | 8.0 | 9.0 | 0.00 | 0.00 | 0.00 | 53 | 1018.0 |
| 20260507171740 | 68 | 109 | 1.0 | 1.0 | 0.00 | 0.00 | 0.00 | 51 | 1017.9 |
| 20260507171238 | 69 | 114 | 1.0 | 1.0 | 0.00 | 0.00 | 0.00 | 52 | 1018.3 |
| 20260507170734 | 69 | 139 | 1.0 | 2.0 | 0.00 | 0.00 | 0.00 | 52 | 1018.6 |
| 20260507170231 | 68 | 28 | 1.0 | 2.0 | 0.00 | 0.00 | 0.00 | 55 | 1018.3 |
| 20260507165727 | 69 | 341 | 2.0 | 2.0 | 0.00 | 0.00 | 0.00 | 53 | 1018.6 |
| 20260507165223 | 68 | 86 | 2.0 | 3.0 | 0.00 | 0.00 | 0.00 | 53 | 1018.7 |
| 20260507164719 | 68 | 66 | 8.0 | 9.0 | 0.00 | 0.00 | 0.00 | 54 | 1018.6 |
| 20260507164217 | 68 | 348 | 5.0 | 6.0 | 0.00 | 0.00 | 0.00 | 56 | 1018.7 |
| 20260507163714 | 69 | 37 | 6.0 | 9.0 | 0.00 | 0.00 | 0.00 | 55 | 1018.8 |
| 20260507163212 | 66 | 326 | 5.0 | 7.0 | 0.00 | 0.00 | 0.00 | 58 | 1018.8 |
| 20260507162708 | 64 | 6 | 3.0 | 5.0 | 0.00 | 0.00 | 0.00 | 60 | 1018.9 |